AVA9295 SKCL-SKPS

Flight info

Callsign AVA9295
Flight time 0h 31m
Altitude 20000
Route CLO1D ISOPA G675 MER
Aircraft B722/M-SDFGHRWY/C

Departure

Time 2026-05-08 20:53
Airport Alfonso Bonilla Aragon International Airport (SKCL)

Arrival

Time 2026-05-08 21:25
Airport Antonio Nariño Airport (SKPS)
Time Latitude Longitude Altitude Speed Heading
2026-05-08 20:25 3.53792 -76.38715 3167 ft 0 kts 258°
2026-05-08 20:45 3.53793 -76.38709 3165 ft 4 kts 258°
2026-05-08 20:45 3.53798 -76.38687 3167 ft 2 kts 258°
2026-05-08 20:45 3.53802 -76.38662 3165 ft 4 kts 262°
2026-05-08 20:46 3.53805 -76.38635 3166 ft 4 kts 265°
2026-05-08 20:46 3.53809 -76.38611 3166 ft 4 kts 244°
2026-05-08 20:46 3.53821 -76.38601 3166 ft 4 kts 174°
2026-05-08 20:46 3.53837 -76.38612 3167 ft 4 kts 142°
2026-05-08 20:47 3.53850 -76.38622 3168 ft 0 kts 142°
2026-05-08 20:48 3.53849 -76.38622 3168 ft 1 kts 142°
2026-05-08 20:49 3.53838 -76.38609 3169 ft 5 kts 133°
2026-05-08 20:49 3.53793 -76.38582 3167 ft 10 kts 150°
2026-05-08 20:49 3.53717 -76.38538 3167 ft 15 kts 148°
2026-05-08 20:49 3.53611 -76.38490 3166 ft 18 kts 161°
2026-05-08 20:50 3.53479 -76.38480 3164 ft 20 kts 190°
2026-05-08 20:50 3.53334 -76.38507 3164 ft 22 kts 190°
2026-05-08 20:50 3.53177 -76.38533 3163 ft 24 kts 189°
2026-05-08 20:50 3.53021 -76.38559 3164 ft 14 kts 177°
2026-05-08 20:51 3.52995 -76.38512 3162 ft 10 kts 98°
2026-05-08 20:51 3.52986 -76.38431 3161 ft 13 kts 91°
2026-05-08 20:51 3.53020 -76.38396 3161 ft 0 kts 10°
2026-05-08 20:52 3.53107 -76.38381 3160 ft 34 kts
2026-05-08 20:52 3.53512 -76.38313 3164 ft 83 kts
2026-05-08 20:52 3.54220 -76.38193 3171 ft 122 kts 10°
2026-05-08 20:53 3.55166 -76.38026 3188 ft 149 kts 11°
2026-05-08 20:53 3.56194 -76.37846 3458 ft 152 kts 12°
2026-05-08 20:53 3.57276 -76.37648 3699 ft 163 kts 12°
2026-05-08 20:53 3.58428 -76.37422 3930 ft 178 kts 13°
2026-05-08 20:54 3.59732 -76.37183 4102 ft 194 kts
2026-05-08 20:54 3.61045 -76.36981 4720 ft 191 kts
2026-05-08 20:54 3.62362 -76.36751 5220 ft 199 kts
2026-05-08 20:54 3.63755 -76.36502 5789 ft 206 kts
2026-05-08 20:55 3.65204 -76.36245 6315 ft 216 kts
2026-05-08 20:55 3.66721 -76.35977 6813 ft 227 kts
2026-05-08 20:55 3.68319 -76.35696 7313 ft 239 kts
2026-05-08 20:55 3.70002 -76.35406 7833 ft 251 kts
2026-05-08 20:56 3.71748 -76.35512 8311 ft 263 kts 343°
2026-05-08 20:56 3.73409 -76.36352 8808 ft 275 kts 320°
2026-05-08 20:56 3.74639 -76.37871 9332 ft 291 kts 296°
2026-05-08 20:56 3.75124 -76.39861 9862 ft 299 kts 269°
2026-05-08 20:57 3.74683 -76.41879 10332 ft 300 kts 243°
2026-05-08 20:57 3.73388 -76.43509 10787 ft 302 kts 216°
2026-05-08 20:57 3.71528 -76.44387 11245 ft 302 kts 190°
2026-05-08 20:57 3.69421 -76.44345 11720 ft 302 kts 162°
2026-05-08 20:58 3.67496 -76.43509 12215 ft 302 kts 148°
2026-05-08 20:58 3.65789 -76.42331 12700 ft 303 kts 141°
2026-05-08 20:58 3.63995 -76.41205 13172 ft 307 kts 157°
2026-05-08 20:58 3.61907 -76.40680 13652 ft 312 kts 171°
2026-05-08 20:59 3.59689 -76.40526 14100 ft 329 kts 178°
2026-05-08 20:59 3.57340 -76.40606 14475 ft 347 kts 181°
2026-05-08 20:59 3.54869 -76.40693 14842 ft 364 kts 179°
2026-05-08 20:59 3.52275 -76.40667 15207 ft 380 kts 177°
2026-05-08 21:00 3.49572 -76.40617 15630 ft 396 kts 178°
2026-05-08 21:00 3.46758 -76.40627 15991 ft 411 kts 179°
2026-05-08 21:00 3.43841 -76.40659 16351 ft 426 kts 180°
2026-05-08 21:00 3.40845 -76.40825 16711 ft 436 kts 188°
2026-05-08 21:01 3.37970 -76.41635 17057 ft 439 kts 199°
2026-05-08 21:01 3.35135 -76.42804 17416 ft 442 kts 204°
2026-05-08 21:01 3.32375 -76.44173 17772 ft 444 kts 207°
2026-05-08 21:01 3.29604 -76.45563 18128 ft 447 kts 205°
2026-05-08 21:02 3.26755 -76.46836 18465 ft 448 kts 202°
2026-05-08 21:02 3.23892 -76.48074 18770 ft 450 kts 203°
2026-05-08 21:02 3.21046 -76.49398 19062 ft 451 kts 205°
2026-05-08 21:02 3.18214 -76.50763 19325 ft 452 kts 205°
2026-05-08 21:03 3.15358 -76.52084 19612 ft 453 kts 203°
2026-05-08 21:03 3.12477 -76.53374 19910 ft 454 kts 203°
2026-05-08 21:03 3.09577 -76.54699 20013 ft 458 kts 204°
2026-05-08 21:03 3.06699 -76.56051 20015 ft 456 kts 204°
2026-05-08 21:04 3.03823 -76.57392 20012 ft 457 kts 204°
2026-05-08 21:04 3.00934 -76.58712 20016 ft 457 kts 204°
2026-05-08 21:04 2.98082 -76.60019 20016 ft 456 kts 204°
2026-05-08 21:04 2.95200 -76.61360 20036 ft 457 kts 204°
2026-05-08 21:05 2.92321 -76.62700 20037 ft 456 kts 204°
2026-05-08 21:05 2.89438 -76.64029 20039 ft 456 kts 204°
2026-05-08 21:05 2.86549 -76.65356 20007 ft 457 kts 204°
2026-05-08 21:05 2.83668 -76.66691 20006 ft 456 kts 204°
2026-05-08 21:06 2.80792 -76.68025 20030 ft 457 kts 204°
2026-05-08 21:06 2.77911 -76.69356 20034 ft 456 kts 204°
2026-05-08 21:06 2.75026 -76.70686 20040 ft 456 kts 204°
2026-05-08 21:06 2.72136 -76.72021 20045 ft 456 kts 204°
2026-05-08 21:07 2.69251 -76.73357 20046 ft 456 kts 204°
2026-05-08 21:07 2.66368 -76.74691 20063 ft 456 kts 204°
2026-05-08 21:07 2.63482 -76.76022 20064 ft 456 kts 204°
2026-05-08 21:07 2.60596 -76.77355 20064 ft 457 kts 204°
2026-05-08 21:08 2.57713 -76.78688 20069 ft 457 kts 204°
2026-05-08 21:08 2.54825 -76.80023 20058 ft 458 kts 204°
2026-05-08 21:08 2.51941 -76.81355 20066 ft 457 kts 204°
2026-05-08 21:08 2.49054 -76.82685 20064 ft 457 kts 204°
2026-05-08 21:09 2.46196 -76.83997 20061 ft 458 kts 204°
2026-05-08 21:09 2.43302 -76.85326 20061 ft 456 kts 204°
2026-05-08 21:09 2.40417 -76.86662 20054 ft 457 kts 204°
2026-05-08 21:09 2.37540 -76.88002 20054 ft 455 kts 204°
2026-05-08 21:10 2.34670 -76.89332 20057 ft 454 kts 204°
2026-05-08 21:10 2.31792 -76.90659 20054 ft 456 kts 204°
2026-05-08 21:10 2.28900 -76.91995 20053 ft 455 kts 204°
2026-05-08 21:10 2.26024 -76.93330 20056 ft 455 kts 204°
2026-05-08 21:11 2.23149 -76.94663 20031 ft 457 kts 204°
2026-05-08 21:11 2.20252 -76.96000 20030 ft 458 kts 204°
2026-05-08 21:11 2.17360 -76.97337 20031 ft 457 kts 204°
2026-05-08 21:11 2.14471 -76.98676 20032 ft 457 kts 204°
2026-05-08 21:12 2.11587 -77.00012 20034 ft 457 kts 204°
2026-05-08 21:12 2.08697 -77.01349 20037 ft 457 kts 204°
2026-05-08 21:12 2.05844 -77.02668 20039 ft 457 kts 204°
2026-05-08 21:12 2.02953 -77.04004 20042 ft 457 kts 204°
2026-05-08 21:13 2.00068 -77.05339 19698 ft 450 kts 204°
2026-05-08 21:13 1.97298 -77.06624 19266 ft 429 kts 204°
2026-05-08 21:13 1.94636 -77.07856 18759 ft 414 kts 204°
2026-05-08 21:13 1.92066 -77.09043 18233 ft 401 kts 204°
2026-05-08 21:14 1.89571 -77.10196 17658 ft 389 kts 204°
2026-05-08 21:14 1.87138 -77.11323 17085 ft 379 kts 204°
2026-05-08 21:14 1.84812 -77.12401 16522 ft 357 kts 204°
2026-05-08 21:14 1.82618 -77.13415 15955 ft 337 kts 203°
2026-05-08 21:15 1.80541 -77.14375 15393 ft 322 kts 202°
2026-05-08 21:15 1.78557 -77.15306 14873 ft 309 kts 204°
2026-05-08 21:15 1.76665 -77.16287 14350 ft 305 kts 206°
2026-05-08 21:15 1.74813 -77.17317 13848 ft 304 kts 207°
2026-05-08 21:16 1.72988 -77.18312 13300 ft 301 kts 205°
2026-05-08 21:16 1.71125 -77.19300 12745 ft 298 kts 205°
2026-05-08 21:16 1.69340 -77.20248 12549 ft 288 kts 206°
2026-05-08 21:16 1.67593 -77.21184 12544 ft 285 kts 206°
2026-05-08 21:17 1.65839 -77.22123 12355 ft 288 kts 206°
2026-05-08 21:17 1.64075 -77.23064 12099 ft 286 kts 206°
2026-05-08 21:17 1.62332 -77.24001 11914 ft 283 kts 207°
2026-05-08 21:17 1.60588 -77.24937 11639 ft 283 kts 205°
2026-05-08 21:18 1.58853 -77.25864 11425 ft 282 kts 206°
2026-05-08 21:18 1.57124 -77.26789 11199 ft 281 kts 206°
2026-05-08 21:18 1.55394 -77.27715 10959 ft 281 kts 205°
2026-05-08 21:18 1.53680 -77.28631 10745 ft 279 kts 207°
2026-05-08 21:19 1.51969 -77.29531 10549 ft 278 kts 204°
2026-05-08 21:19 1.50250 -77.30388 10268 ft 279 kts 204°
2026-05-08 21:19 1.49092 -77.30957 10053 ft 271 kts 204°
2026-05-08 21:19 1.47431 -77.31784 9749 ft 261 kts 206°
2026-05-08 21:20 1.45338 -77.32840 9274 ft 248 kts 206°
2026-05-08 21:20 1.43810 -77.33606 8950 ft 243 kts 205°
2026-05-08 21:20 1.42798 -77.34112 8775 ft 238 kts 205°
2026-05-08 21:20 1.41404 -77.34810 8781 ft 215 kts 206°
2026-05-08 21:21 1.40141 -77.35444 8751 ft 184 kts 205°
2026-05-08 21:21 1.39066 -77.35984 8731 ft 170 kts 206°
2026-05-08 21:21 1.37968 -77.36466 8795 ft 177 kts 193°
2026-05-08 21:21 1.36764 -77.36520 8813 ft 173 kts 172°
2026-05-08 21:22 1.35669 -77.36191 8669 ft 163 kts 152°
2026-05-08 21:22 1.34775 -77.35524 8456 ft 157 kts 132°
2026-05-08 21:22 1.34156 -77.34622 8285 ft 160 kts 115°
2026-05-08 21:22 1.33851 -77.33547 8048 ft 161 kts 96°
2026-05-08 21:23 1.33910 -77.32443 7873 ft 160 kts 75°
2026-05-08 21:23 1.34342 -77.31410 7684 ft 163 kts 56°
2026-05-08 21:23 1.35090 -77.30572 7446 ft 160 kts 36°
2026-05-08 21:23 1.36051 -77.30015 7006 ft 162 kts 19°
2026-05-08 21:24 1.37134 -77.29731 6487 ft 157 kts
2026-05-08 21:24 1.38164 -77.29536 6121 ft 144 kts 15°
2026-05-08 21:24 1.39060 -77.29263 5931 ft 117 kts 14°
2026-05-08 21:24 1.39660 -77.29102 5904 ft 64 kts 14°
2026-05-08 21:25 1.39971 -77.29022 5889 ft 40 kts 15°
2026-05-08 21:25 1.40245 -77.28948 5872 ft 42 kts 16°
2026-05-08 21:25 1.40464 -77.28889 5873 ft 20 kts 14°
2026-05-08 21:25 1.40602 -77.28864 5858 ft 16 kts
2026-05-08 21:26 1.40625 -77.28837 5853 ft 2 kts 165°
2026-05-08 21:26 1.40622 -77.28837 5854 ft 0 kts 182°
2026-05-08 21:26 1.40606 -77.28843 5866 ft 5 kts 207°
2026-05-08 21:26 1.40563 -77.28863 5870 ft 9 kts 195°
2026-05-08 21:27 1.40505 -77.28879 5867 ft 9 kts 195°
2026-05-08 21:27 1.40444 -77.28895 5866 ft 10 kts 195°
2026-05-08 21:27 1.40372 -77.28914 5869 ft 12 kts 195°
2026-05-08 21:27 1.40288 -77.28937 5867 ft 13 kts 195°
2026-05-08 21:28 1.40201 -77.28960 5876 ft 13 kts 195°
2026-05-08 21:28 1.40120 -77.28981 5880 ft 12 kts 194°
2026-05-08 21:28 1.40043 -77.29001 5884 ft 12 kts 194°
2026-05-08 21:28 1.39960 -77.29022 5890 ft 13 kts 194°
2026-05-08 21:29 1.39875 -77.29044 5893 ft 13 kts 194°
2026-05-08 21:29 1.39792 -77.29066 5897 ft 12 kts 194°
2026-05-08 21:29 1.39710 -77.29087 5902 ft 12 kts 189°
2026-05-08 21:29 1.39662 -77.29037 5905 ft 12 kts 127°
2026-05-08 21:30 1.39584 -77.29018 5906 ft 11 kts 172°
2026-05-08 21:30 1.39530 -77.29021 5909 ft 0 kts 192°